Time,TemperatureF,DewpointF,PressureIn,WindDirection,WindDirectionDegrees,WindSpeedMPH,WindSpeedGustMPH,Humidity,HourlyPrecipIn,Conditions,Clouds,dailyrainin,SoftwareType,DateUTC
2013-01-28 00:04:00,17.7,-0.5,30.38,WNW,302,0.0,1.3,44,0.00,n/a,n/a,-99.99,Henriksen +1-Wire,2013-01-28 05:04:00,
2013-01-28 00:06:00,17.6,-0.4,30.38,SE,125,0.1,1.0,44,0.00,n/a,n/a,-99.99,Henriksen +1-Wire,2013-01-28 05:06:00,
2013-01-28 00:08:00,17.5,-0.5,30.38,ESE,112,0.0,1.0,45,0.00,n/a,n/a,-99.99,Henriksen +1-Wire,2013-01-28 05:08:00,
2013-01-28 00:10:00,17.5,-0.6,30.38,ESE,109,0.6,1.9,44,0.00,n/a,n/a,-99.99,Henriksen +1-Wire,2013-01-28 05:10:00,
2013-01-28 00:16:00,18.3,1.8,30.39,South,185,0.6,1.9,48,0.00,n/a,n/a,-99.99,Henriksen +1-Wire,2013-01-28 05:16:00,
2013-01-28 00:22:00,18.3,2.3,30.38,ENE,60,0.6,1.3,49,0.00,n/a,n/a,-99.99,Henriksen +1-Wire,2013-01-28 05:22:00,
2013-01-28 00:28:00,18.1,2.5,30.38,East,91,0.4,1.0,50,0.00,n/a,n/a,-99.99,Henriksen +1-Wire,2013-01-28 05:28:00,
2013-01-28 00:34:00,18.2,2.1,30.38,NNW,335,0.6,1.3,49,0.00,n/a,n/a,-99.99,Henriksen +1-Wire,2013-01-28 05:34:00,
2013-01-28 00:40:00,17.8,1.7,30.38,NNE,31,0.6,1.6,49,0.00,n/a,n/a,-99.99,Henriksen +1-Wire,2013-01-28 05:40:00,
2013-01-28 00:46:00,17.4,1.4,30.38,East,86,0.4,1.6,49,0.00,n/a,n/a,-99.99,Henriksen +1-Wire,2013-01-28 05:46:00,
2013-01-28 00:52:00,17.5,2.0,30.37,SSE,149,0.2,1.6,50,0.00,n/a,n/a,-99.99,Henriksen +1-Wire,2013-01-28 05:52:00,
2013-01-28 00:58:00,18.0,2.5,30.37,West,261,0.3,2.2,50,0.00,n/a,n/a,-99.99,Henriksen +1-Wire,2013-01-28 05:58:00,
2013-01-28 01:04:00,18.2,3.3,30.37,SE,145,0.3,2.2,52,0.00,n/a,n/a,-99.99,Henriksen +1-Wire,2013-01-28 06:04:00,
2013-01-28 01:10:00,18.4,4.0,30.37,SSE,161,0.9,2.2,53,0.00,n/a,n/a,-99.99,Henriksen +1-Wire,2013-01-28 06:10:00,
2013-01-28 01:16:00,18.4,3.7,30.37,SW,219,0.2,1.9,52,0.00,n/a,n/a,-99.99,Henriksen +1-Wire,2013-01-28 06:16:00,
2013-01-28 01:22:00,17.5,2.8,30.37,NE,54,0.4,1.7,52,0.00,n/a,n/a,-99.99,Henriksen +1-Wire,2013-01-28 06:22:00,
2013-01-28 01:28:00,17.5,2.7,30.37,SSE,154,0.4,1.0,52,0.00,n/a,n/a,-99.99,Henriksen +1-Wire,2013-01-28 06:28:00,
2013-01-28 01:34:00,16.3,1.8,30.38,WNW,289,0.0,1.0,52,0.00,n/a,n/a,-99.99,Henriksen +1-Wire,2013-01-28 06:34:00,
2013-01-28 01:40:00,17.7,2.9,30.38,West,265,0.1,1.3,51,0.00,n/a,n/a,-99.99,Henriksen +1-Wire,2013-01-28 06:40:00,
2013-01-28 01:46:00,18.4,3.6,30.38,SSW,206,0.0,1.3,52,0.00,n/a,n/a,-99.99,Henriksen +1-Wire,2013-01-28 06:46:00,
2013-01-28 01:52:00,18.2,3.0,30.38,NW,318,1.5,2.5,51,0.00,n/a,n/a,-99.99,Henriksen +1-Wire,2013-01-28 06:52:00,
2013-01-28 01:58:00,17.8,1.7,30.39,West,259,0.9,2.5,49,0.00,n/a,n/a,-99.99,Henriksen +1-Wire,2013-01-28 06:58:00,
2013-01-28 02:04:00,17.6,2.9,30.39,South,172,1.3,2.3,52,0.00,n/a,n/a,-99.99,Henriksen +1-Wire,2013-01-28 07:04:00,
2013-01-28 02:10:00,17.7,2.4,30.39,SSW,198,0.8,2.6,51,0.00,n/a,n/a,-99.99,Henriksen +1-Wire,2013-01-28 07:10:00,
2013-01-28 02:16:00,19.1,2.7,30.39,West,275,1.1,2.2,48,0.00,n/a,n/a,-99.99,Henriksen +1-Wire,2013-01-28 07:16:00,
2013-01-28 02:22:00,19.9,3.2,30.39,SSW,196,1.3,2.3,48,0.00,n/a,n/a,-99.99,Henriksen +1-Wire,2013-01-28 07:22:00,
2013-01-28 02:28:00,20.1,4.3,30.39,SW,223,0.3,2.9,50,0.00,n/a,n/a,-99.99,Henriksen +1-Wire,2013-01-28 07:28:00,
2013-01-28 02:34:00,20.3,4.0,30.38,WNW,285,0.5,2.9,49,0.00,n/a,n/a,-99.99,Henriksen +1-Wire,2013-01-28 07:34:00,
2013-01-28 02:40:00,20.5,3.2,30.37,NW,323,1.1,2.6,46,0.00,n/a,n/a,-99.99,Henriksen +1-Wire,2013-01-28 07:40:00,
2013-01-28 02:46:00,20.6,3.0,30.37,NNW,331,0.7,2.8,46,0.00,n/a,n/a,-99.99,Henriksen +1-Wire,2013-01-28 07:46:00,
2013-01-28 02:52:00,20.5,3.3,30.37,SW,218,0.2,2.8,46,0.00,n/a,n/a,-99.99,Henriksen +1-Wire,2013-01-28 07:52:00,
2013-01-28 02:58:00,20.5,3.1,30.37,SW,223,0.4,1.3,46,0.00,n/a,n/a,-99.99,Henriksen +1-Wire,2013-01-28 07:58:00,
2013-01-28 03:04:00,20.4,3.7,30.36,SW,221,0.0,0.9,48,0.00,n/a,n/a,-99.99,Henriksen +1-Wire,2013-01-28 08:04:00,
2013-01-28 03:10:00,20.3,4.2,30.36,SW,223,0.0,0.0,49,0.00,n/a,n/a,-99.99,Henriksen +1-Wire,2013-01-28 08:10:00,
2013-01-28 03:16:00,20.0,3.7,30.37,SW,222,0.0,0.0,49,0.00,n/a,n/a,-99.99,Henriksen +1-Wire,2013-01-28 08:16:00,
2013-01-28 03:22:00,18.3,3.1,30.37,SW,218,0.0,0.0,51,0.00,n/a,n/a,-99.99,Henriksen +1-Wire,2013-01-28 08:22:00,
2013-01-28 03:28:00,17.8,2.9,30.37,SW,223,0.0,0.0,51,0.00,n/a,n/a,-99.99,Henriksen +1-Wire,2013-01-28 08:28:00,
2013-01-28 03:34:00,17.6,4.4,30.37,SW,221,0.0,0.3,55,0.00,n/a,n/a,-99.99,Henriksen +1-Wire,2013-01-28 08:34:00,
2013-01-28 03:40:00,17.5,4.8,30.37,SW,223,0.8,1.3,57,0.00,n/a,n/a,-99.99,Henriksen +1-Wire,2013-01-28 08:40:00,
2013-01-28 03:46:00,17.5,4.7,30.37,SW,222,0.8,1.6,56,0.00,n/a,n/a,-99.99,Henriksen +1-Wire,2013-01-28 08:46:00,
2013-01-28 03:52:00,18.9,4.7,30.36,ESE,106,0.3,2.6,53,0.00,n/a,n/a,-99.99,Henriksen +1-Wire,2013-01-28 08:52:00,
2013-01-28 03:58:00,19.9,5.2,30.36,ESE,110,0.0,2.6,52,0.00,n/a,n/a,-99.99,Henriksen +1-Wire,2013-01-28 08:58:00,
2013-01-28 04:04:00,20.4,5.4,30.36,WNW,303,0.6,1.7,52,0.00,n/a,n/a,-99.99,Henriksen +1-Wire,2013-01-28 09:04:00,
2013-01-28 04:10:00,20.0,4.8,30.36,NW,314,0.5,1.3,51,0.00,n/a,n/a,-99.99,Henriksen +1-Wire,2013-01-28 09:10:00,
2013-01-28 04:16:00,19.3,4.3,30.36,North,360,0.3,1.3,51,0.00,n/a,n/a,-99.99,Henriksen +1-Wire,2013-01-28 09:16:00,
2013-01-28 04:22:00,19.3,4.0,30.36,SW,218,0.0,1.3,51,0.00,n/a,n/a,-99.99,Henriksen +1-Wire,2013-01-28 09:22:00,
2013-01-28 04:28:00,19.2,3.9,30.35,SW,223,0.0,0.0,51,0.00,n/a,n/a,-99.99,Henriksen +1-Wire,2013-01-28 09:28:00,
2013-01-28 04:34:00,19.2,3.7,30.35,NW,317,0.7,1.0,50,0.00,n/a,n/a,-99.99,Henriksen +1-Wire,2013-01-28 09:34:00,
2013-01-28 04:40:00,19.2,3.4,30.35,NNW,327,0.5,1.0,49,0.00,n/a,n/a,-99.99,Henriksen +1-Wire,2013-01-28 09:40:00,
2013-01-28 04:46:00,19.1,3.7,30.35,WNW,295,0.0,1.0,50,0.00,n/a,n/a,-99.99,Henriksen +1-Wire,2013-01-28 09:46:00,
2013-01-28 04:52:00,19.2,4.2,30.35,SW,230,0.0,0.0,51,0.00,n/a,n/a,-99.99,Henriksen +1-Wire,2013-01-28 09:52:00,
2013-01-28 04:58:00,19.2,5.2,30.35,SSW,209,0.0,1.3,54,0.00,n/a,n/a,-99.99,Henriksen +1-Wire,2013-01-28 09:58:00,
2013-01-28 05:04:00,19.2,5.3,30.35,SSW,199,0.0,0.9,54,0.00,n/a,n/a,-99.99,Henriksen +1-Wire,2013-01-28 10:04:00,
2013-01-28 05:10:00,19.8,5.9,30.34,SSW,202,0.2,1.0,54,0.00,n/a,n/a,-99.99,Henriksen +1-Wire,2013-01-28 10:10:00,
2013-01-28 05:16:00,19.9,5.9,30.35,WSW,238,0.2,1.0,54,0.00,n/a,n/a,-99.99,Henriksen +1-Wire,2013-01-28 10:16:00,
2013-01-28 05:22:00,20.3,7.4,30.35,SSW,196,0.9,1.6,57,0.00,n/a,n/a,-99.99,Henriksen +1-Wire,2013-01-28 10:22:00,
2013-01-28 05:28:00,20.3,7.5,30.35,SSW,200,0.6,1.6,57,0.00,n/a,n/a,-99.99,Henriksen +1-Wire,2013-01-28 10:28:00,
2013-01-28 05:34:00,19.7,7.4,30.35,SSW,199,0.0,1.0,58,0.00,n/a,n/a,-99.99,Henriksen +1-Wire,2013-01-28 10:34:00,
2013-01-28 05:40:00,18.9,7.1,30.35,SSW,201,0.0,0.0,59,0.00,n/a,n/a,-99.99,Henriksen +1-Wire,2013-01-28 10:40:00,
2013-01-28 05:46:00,18.1,6.6,30.35,SSW,200,0.0,0.0,60,0.00,n/a,n/a,-99.99,Henriksen +1-Wire,2013-01-28 10:46:00,
2013-01-28 05:52:00,17.6,6.3,30.35,SSW,196,0.1,1.3,60,0.00,n/a,n/a,-99.99,Henriksen +1-Wire,2013-01-28 10:52:00,
2013-01-28 05:58:00,17.5,6.8,30.35,SSW,200,0.0,1.3,62,0.00,n/a,n/a,-99.99,Henriksen +1-Wire,2013-01-28 10:58:00,
2013-01-28 06:04:00,18.3,7.6,30.35,SSW,199,0.0,0.0,62,0.00,n/a,n/a,-99.99,Henriksen +1-Wire,2013-01-28 11:04:00,
2013-01-28 06:10:00,18.6,8.0,30.35,SSW,201,0.0,0.0,63,0.00,n/a,n/a,-99.99,Henriksen +1-Wire,2013-01-28 11:10:00,
2013-01-28 06:16:00,16.9,6.8,30.35,North,357,0.0,0.0,64,0.00,n/a,n/a,-99.99,Henriksen +1-Wire,2013-01-28 11:16:00,
2013-01-28 06:22:00,16.0,5.9,30.35,NNE,25,0.0,0.6,64,0.00,n/a,n/a,-99.99,Henriksen +1-Wire,2013-01-28 11:22:00,
2013-01-28 06:28:00,16.1,6.2,30.35,NNE,23,0.0,0.3,64,0.00,n/a,n/a,-99.99,Henriksen +1-Wire,2013-01-28 11:28:00,
2013-01-28 06:34:00,16.1,6.0,30.34,ENE,65,0.0,1.0,64,0.00,n/a,n/a,-99.99,Henriksen +1-Wire,2013-01-28 11:34:00,
2013-01-28 06:40:00,16.0,6.3,30.34,ENE,69,0.0,0.3,65,0.00,n/a,n/a,-99.99,Henriksen +1-Wire,2013-01-28 11:40:00,
2013-01-28 06:46:00,15.9,6.0,30.35,SSE,154,0.0,0.0,64,0.00,n/a,n/a,-99.99,Henriksen +1-Wire,2013-01-28 11:46:00,
2013-01-28 06:52:00,15.8,6.4,30.34,SSE,151,0.0,0.0,66,0.00,n/a,n/a,-99.99,Henriksen +1-Wire,2013-01-28 11:52:00,
2013-01-28 06:58:00,15.7,6.2,30.35,SSE,155,0.0,0.0,65,0.00,n/a,n/a,-99.99,Henriksen +1-Wire,2013-01-28 11:58:00,
2013-01-28 07:04:00,15.8,6.2,30.35,SSE,163,0.0,0.0,65,0.00,n/a,n/a,-99.99,Henriksen +1-Wire,2013-01-28 12:04:00,
2013-01-28 07:10:00,15.9,6.8,30.34,NNW,334,0.0,0.0,67,0.00,n/a,n/a,-99.99,Henriksen +1-Wire,2013-01-28 12:10:00,
2013-01-28 07:16:00,16.1,7.2,30.34,NNW,335,0.0,0.0,67,0.00,n/a,n/a,-99.99,Henriksen +1-Wire,2013-01-28 12:16:00,
2013-01-28 07:22:00,17.3,8.4,30.35,NNW,331,0.0,0.0,67,0.00,n/a,n/a,-99.99,Henriksen +1-Wire,2013-01-28 12:22:00,
2013-01-28 07:28:00,18.0,8.9,30.35,NNW,335,0.0,0.0,67,0.00,n/a,n/a,-99.99,Henriksen +1-Wire,2013-01-28 12:28:00,
2013-01-28 07:34:00,18.3,9.2,30.35,North,355,0.0,0.0,67,0.00,n/a,n/a,-99.99,Henriksen +1-Wire,2013-01-28 12:34:00,
2013-01-28 07:40:00,18.2,9.1,30.35,East,81,0.0,0.0,67,0.00,n/a,n/a,-99.99,Henriksen +1-Wire,2013-01-28 12:40:00,
2013-01-28 07:46:00,18.3,9.0,30.34,ENE,70,0.1,1.6,66,0.00,n/a,n/a,-99.99,Henriksen +1-Wire,2013-01-28 12:46:00,
2013-01-28 07:52:00,18.3,9.0,30.35,NNE,25,0.0,1.2,66,0.00,n/a,n/a,-99.99,Henriksen +1-Wire,2013-01-28 12:52:00,
2013-01-28 07:58:00,18.4,9.3,30.35,SSE,163,0.1,1.0,67,0.00,n/a,n/a,-99.99,Henriksen +1-Wire,2013-01-28 12:58:00,
2013-01-28 08:04:00,19.1,10.0,30.35,South,174,0.3,1.0,67,0.00,n/a,n/a,-99.99,Henriksen +1-Wire,2013-01-28 13:04:00,
2013-01-28 08:10:00,20.6,11.0,30.35,South,170,0.0,0.7,66,0.00,n/a,n/a,-99.99,Henriksen +1-Wire,2013-01-28 13:10:00,
2013-01-28 08:16:00,21.0,10.1,30.34,ESE,110,0.0,0.0,62,0.00,n/a,n/a,-99.99,Henriksen +1-Wire,2013-01-28 13:16:00,
2013-01-28 08:22:00,22.0,10.0,30.34,ENE,77,0.6,1.0,59,0.00,n/a,n/a,-99.99,Henriksen +1-Wire,2013-01-28 13:22:00,
2013-01-28 08:28:00,21.6,8.8,30.34,ESE,111,0.9,1.9,57,0.00,n/a,n/a,-99.99,Henriksen +1-Wire,2013-01-28 13:28:00,
2013-01-28 08:34:00,22.2,8.2,30.34,SSE,153,0.5,1.9,54,0.00,n/a,n/a,-99.99,Henriksen +1-Wire,2013-01-28 13:34:00,
2013-01-28 08:40:00,21.9,6.4,30.34,ESE,122,2.2,3.5,51,0.00,n/a,n/a,-99.99,Henriksen +1-Wire,2013-01-28 13:40:00,
2013-01-28 08:46:00,23.2,7.3,30.34,South,174,1.9,3.5,50,0.00,n/a,n/a,-99.99,Henriksen +1-Wire,2013-01-28 13:46:00,
2013-01-28 08:52:00,23.8,8.0,30.35,South,183,1.0,3.8,50,0.00,n/a,n/a,-99.99,Henriksen +1-Wire,2013-01-28 13:52:00,
2013-01-28 08:58:00,23.4,7.0,30.34,South,183,1.3,3.2,49,0.00,n/a,n/a,-99.99,Henriksen +1-Wire,2013-01-28 13:58:00,
2013-01-28 09:04:00,23.0,6.1,30.34,SSW,199,0.9,2.9,47,0.00,n/a,n/a,-99.99,Henriksen +1-Wire,2013-01-28 14:04:00,
2013-01-28 09:10:00,23.0,6.0,30.34,SSW,206,0.6,2.6,47,0.00,n/a,n/a,-99.99,Henriksen +1-Wire,2013-01-28 14:10:00,
2013-01-28 09:16:00,23.1,5.5,30.34,East,98,1.4,1.9,46,0.00,n/a,n/a,-99.99,Henriksen +1-Wire,2013-01-28 14:16:00,
2013-01-28 09:22:00,23.6,5.6,30.34,WNW,295,0.5,1.9,45,0.00,n/a,n/a,-99.99,Henriksen +1-Wire,2013-01-28 14:22:00,
2013-01-28 09:28:00,25.2,7.0,30.34,NW,325,1.4,2.3,45,0.00,n/a,n/a,-99.99,Henriksen +1-Wire,2013-01-28 14:28:00,
2013-01-28 09:34:00,25.8,6.8,30.33,East,97,2.5,3.8,44,0.00,n/a,n/a,-99.99,Henriksen +1-Wire,2013-01-28 14:34:00,
2013-01-28 09:40:00,25.1,5.5,30.33,SSE,159,1.1,3.8,42,0.00,n/a,n/a,-99.99,Henriksen +1-Wire,2013-01-28 14:40:00,
2013-01-28 09:46:00,25.3,5.8,30.33,NW,314,0.7,3.7,43,0.00,n/a,n/a,-99.99,Henriksen +1-Wire,2013-01-28 14:46:00,
2013-01-28 09:52:00,25.6,5.7,30.34,SW,234,1.3,2.6,42,0.00,n/a,n/a,-99.99,Henriksen +1-Wire,2013-01-28 14:52:00,
2013-01-28 09:58:00,26.9,6.8,30.34,SSW,192,0.9,3.1,42,0.00,n/a,n/a,-99.99,Henriksen +1-Wire,2013-01-28 14:58:00,
2013-01-28 10:04:00,27.1,7.0,30.33,ESE,106,1.7,3.1,42,0.00,n/a,n/a,-99.99,Henriksen +1-Wire,2013-01-28 15:04:00,
2013-01-28 10:10:00,27.1,5.3,30.33,East,79,1.2,3.1,39,0.00,n/a,n/a,-99.99,Henriksen +1-Wire,2013-01-28 15:10:00,
2013-01-28 10:16:00,27.3,6.0,30.33,South,173,2.5,3.8,39,0.00,n/a,n/a,-99.99,Henriksen +1-Wire,2013-01-28 15:16:00,
2013-01-28 10:22:00,27.5,6.4,30.33,SSW,199,2.2,4.1,40,0.00,n/a,n/a,-99.99,Henriksen +1-Wire,2013-01-28 15:22:00,
2013-01-28 10:28:00,27.3,5.9,30.32,ESE,123,1.8,4.4,39,0.00,n/a,n/a,-99.99,Henriksen +1-Wire,2013-01-28 15:28:00,
2013-01-28 10:34:00,26.8,5.8,30.32,South,170,2.1,4.4,40,0.00,n/a,n/a,-99.99,Henriksen +1-Wire,2013-01-28 15:34:00,
2013-01-28 10:40:00,26.6,5.3,30.31,ESE,110,2.7,3.8,39,0.00,n/a,n/a,-99.99,Henriksen +1-Wire,2013-01-28 15:40:00,
2013-01-28 10:46:00,26.6,5.0,30.31,ESE,105,1.1,3.8,39,0.00,n/a,n/a,-99.99,Henriksen +1-Wire,2013-01-28 15:46:00,
2013-01-28 10:52:00,26.6,4.6,30.30,ENE,76,1.4,4.3,38,0.00,n/a,n/a,-99.99,Henriksen +1-Wire,2013-01-28 15:52:00,
2013-01-28 10:58:00,28.1,5.9,30.30,ENE,72,1.8,3.9,38,0.00,n/a,n/a,-99.99,Henriksen +1-Wire,2013-01-28 15:58:00,
2013-01-28 11:04:00,28.9,6.2,30.30,ESE,108,3.3,4.2,37,0.00,n/a,n/a,-99.99,Henriksen +1-Wire,2013-01-28 16:04:00,
2013-01-28 11:10:00,29.1,6.0,30.29,East,97,2.1,4.4,37,0.00,n/a,n/a,-99.99,Henriksen +1-Wire,2013-01-28 16:10:00,
2013-01-28 11:16:00,28.5,5.1,30.29,ENE,78,2.0,3.8,36,0.00,n/a,n/a,-99.99,Henriksen +1-Wire,2013-01-28 16:16:00,
2013-01-28 11:22:00,28.6,5.2,30.29,SE,144,2.4,3.2,36,0.00,n/a,n/a,-99.99,Henriksen +1-Wire,2013-01-28 16:22:00,
2013-01-28 11:28:00,28.8,5.3,30.29,SE,133,1.3,3.9,36,0.00,n/a,n/a,-99.99,Henriksen +1-Wire,2013-01-28 16:28:00,
2013-01-28 11:34:00,28.5,4.2,30.28,East,101,2.1,4.5,35,0.00,n/a,n/a,-99.99,Henriksen +1-Wire,2013-01-28 16:34:00,
2013-01-28 11:40:00,28.4,3.9,30.27,East,94,0.9,4.5,34,0.00,n/a,n/a,-99.99,Henriksen +1-Wire,2013-01-28 16:40:00,
2013-01-28 11:46:00,28.7,3.8,30.26,East,83,1.5,3.3,34,0.00,n/a,n/a,-99.99,Henriksen +1-Wire,2013-01-28 16:46:00,
2013-01-28 11:52:00,29.6,4.5,30.26,ESE,111,2.4,3.8,34,0.00,n/a,n/a,-99.99,Henriksen +1-Wire,2013-01-28 16:52:00,
2013-01-28 11:58:00,30.1,4.7,30.26,ESE,107,2.9,5.6,33,0.00,n/a,n/a,-99.99,Henriksen +1-Wire,2013-01-28 16:58:00,
2013-01-28 12:04:00,29.0,3.3,30.25,East,89,3.6,5.6,33,0.00,n/a,n/a,-99.99,Henriksen +1-Wire,2013-01-28 17:04:00,
2013-01-28 12:10:00,30.4,4.4,30.24,East,88,2.9,5.5,32,0.00,n/a,n/a,-99.99,Henriksen +1-Wire,2013-01-28 17:10:00,
2013-01-28 12:16:00,30.9,5.1,30.24,East,90,4.5,7.8,33,0.00,n/a,n/a,-99.99,Henriksen +1-Wire,2013-01-28 17:16:00,
2013-01-28 12:22:00,30.9,4.6,30.25,SE,139,4.3,7.8,32,0.00,n/a,n/a,-99.99,Henriksen +1-Wire,2013-01-28 17:22:00,
2013-01-28 12:28:00,31.0,4.9,30.25,SSE,162,2.3,7.4,32,0.00,n/a,n/a,-99.99,Henriksen +1-Wire,2013-01-28 17:28:00,
2013-01-28 12:34:00,30.7,5.1,30.24,South,177,2.5,5.1,33,0.00,n/a,n/a,-99.99,Henriksen +1-Wire,2013-01-28 17:34:00,
2013-01-28 12:40:00,30.7,5.2,30.23,South,170,1.0,4.5,33,0.00,n/a,n/a,-99.99,Henriksen +1-Wire,2013-01-28 17:40:00,
2013-01-28 12:46:00,31.1,4.9,30.22,NNE,13,3.0,4.2,32,0.00,n/a,n/a,-99.99,Henriksen +1-Wire,2013-01-28 17:46:00,
2013-01-28 12:52:00,31.1,4.4,30.22,ESE,109,3.3,4.8,31,0.00,n/a,n/a,-99.99,Henriksen +1-Wire,2013-01-28 17:52:00,
2013-01-28 12:58:00,31.1,4.6,30.22,SSE,152,2.1,4.8,32,0.00,n/a,n/a,-99.99,Henriksen +1-Wire,2013-01-28 17:58:00,
2013-01-28 13:04:00,31.1,4.8,30.21,SSE,156,3.2,4.5,32,0.00,n/a,n/a,-99.99,Henriksen +1-Wire,2013-01-28 18:04:00,
2013-01-28 13:10:00,31.2,4.5,30.21,SSE,150,2.5,4.3,32,0.00,n/a,n/a,-99.99,Henriksen +1-Wire,2013-01-28 18:10:00,
2013-01-28 13:16:00,31.2,4.4,30.20,SE,128,2.6,4.2,31,0.00,n/a,n/a,-99.99,Henriksen +1-Wire,2013-01-28 18:16:00,
2013-01-28 13:22:00,31.3,4.3,30.20,ESE,109,3.3,6.2,31,0.00,n/a,n/a,-99.99,Henriksen +1-Wire,2013-01-28 18:22:00,
2013-01-28 13:28:00,31.1,3.9,30.18,ESE,110,2.2,6.2,31,0.00,n/a,n/a,-99.99,Henriksen +1-Wire,2013-01-28 18:28:00,
2013-01-28 13:34:00,30.3,3.0,30.18,East,100,3.4,6.6,30,0.00,n/a,n/a,-99.99,Henriksen +1-Wire,2013-01-28 18:34:00,
2013-01-28 13:40:00,30.8,2.9,30.18,East,99,3.9,6.1,30,0.00,n/a,n/a,-99.99,Henriksen +1-Wire,2013-01-28 18:40:00,
2013-01-28 13:46:00,30.4,2.0,30.17,ESE,111,4.3,6.9,29,0.00,n/a,n/a,-99.99,Henriksen +1-Wire,2013-01-28 18:46:00,
2013-01-28 13:52:00,31.1,2.6,30.17,ESE,111,3.8,6.9,29,0.00,n/a,n/a,-99.99,Henriksen +1-Wire,2013-01-28 18:52:00,
2013-01-28 13:58:00,30.8,1.8,30.15,ESE,103,4.1,7.9,28,0.00,n/a,n/a,-99.99,Henriksen +1-Wire,2013-01-28 18:58:00,
2013-01-28 14:04:00,30.4,1.6,30.16,ESE,114,4.8,7.9,28,0.00,n/a,n/a,-99.99,Henriksen +1-Wire,2013-01-28 19:04:00,
2013-01-28 14:10:00,30.3,2.4,30.15,ESE,119,4.6,8.3,30,0.00,n/a,n/a,-99.99,Henriksen +1-Wire,2013-01-28 19:10:00,
2013-01-28 14:16:00,30.0,4.2,30.14,ESE,120,4.5,8.3,33,0.00,n/a,n/a,-99.99,Henriksen +1-Wire,2013-01-28 19:16:00,
2013-01-28 14:22:00,30.3,7.5,30.14,ESE,110,4.0,6.7,37,0.00,n/a,n/a,-99.99,Henriksen +1-Wire,2013-01-28 19:22:00,
2013-01-28 14:28:00,30.8,8.6,30.14,ESE,117,5.1,7.1,39,0.00,n/a,n/a,-99.99,Henriksen +1-Wire,2013-01-28 19:28:00,
2013-01-28 14:34:00,29.0,12.0,30.14,East,99,3.5,9.5,48,0.00,n/a,n/a,-99.99,Henriksen +1-Wire,2013-01-28 19:34:00,
2013-01-28 14:40:00,29.2,15.1,30.15,ESE,112,5.2,9.5,55,0.00,n/a,n/a,-99.99,Henriksen +1-Wire,2013-01-28 19:40:00,
2013-01-28 14:46:00,29.2,17.3,30.15,SE,132,4.0,8.3,60,0.00,n/a,n/a,-99.99,Henriksen +1-Wire,2013-01-28 19:46:00,
2013-01-28 14:52:00,29.2,18.0,30.14,SSE,167,4.6,7.1,62,0.00,n/a,n/a,-99.99,Henriksen +1-Wire,2013-01-28 19:52:00,
2013-01-28 14:58:00,29.0,18.4,30.14,SE,128,3.9,7.0,64,0.00,n/a,n/a,-99.99,Henriksen +1-Wire,2013-01-28 19:58:00,
2013-01-28 15:04:00,28.8,18.8,30.14,ESE,108,4.8,6.4,66,0.00,n/a,n/a,-99.99,Henriksen +1-Wire,2013-01-28 20:04:00,
2013-01-28 15:10:00,27.0,18.5,30.14,ESE,115,3.3,7.0,70,0.00,n/a,n/a,-99.99,Henriksen +1-Wire,2013-01-28 20:10:00,
2013-01-28 15:16:00,26.7,19.4,30.13,ESE,109,2.9,7.0,73,0.00,n/a,n/a,-99.99,Henriksen +1-Wire,2013-01-28 20:16:00,
2013-01-28 15:22:00,26.4,19.7,30.14,SSW,204,1.0,4.5,75,0.00,n/a,n/a,-99.99,Henriksen +1-Wire,2013-01-28 20:22:00,
2013-01-28 15:28:00,26.3,20.2,30.13,ESE,115,1.8,2.6,77,0.00,n/a,n/a,-99.99,Henriksen +1-Wire,2013-01-28 20:28:00,
2013-01-28 15:34:00,27.3,21.7,30.13,ESE,106,1.5,3.2,79,0.00,n/a,n/a,-99.99,Henriksen +1-Wire,2013-01-28 20:34:00,
2013-01-28 15:40:00,27.6,22.4,30.14,East,100,0.2,3.1,80,0.00,n/a,n/a,-99.99,Henriksen +1-Wire,2013-01-28 20:40:00,
2013-01-28 15:46:00,27.5,22.7,30.13,East,82,1.9,2.6,81,0.00,n/a,n/a,-99.99,Henriksen +1-Wire,2013-01-28 20:46:00,
2013-01-28 15:52:00,27.5,23.1,30.13,East,98,1.1,3.0,83,0.00,n/a,n/a,-99.99,Henriksen +1-Wire,2013-01-28 20:52:00,
2013-01-28 15:58:00,27.3,23.1,30.13,East,81,1.3,2.6,83,0.00,n/a,n/a,-99.99,Henriksen +1-Wire,2013-01-28 20:58:00,
2013-01-28 16:04:00,27.3,23.2,30.13,ESE,105,1.3,2.6,84,0.00,n/a,n/a,-99.99,Henriksen +1-Wire,2013-01-28 21:04:00,
2013-01-28 16:10:00,27.2,23.2,30.13,East,97,1.0,3.9,84,0.00,n/a,n/a,-99.99,Henriksen +1-Wire,2013-01-28 21:10:00,
2013-01-28 16:16:00,27.2,23.3,30.13,NNE,30,1.0,3.9,85,0.00,n/a,n/a,-99.99,Henriksen +1-Wire,2013-01-28 21:16:00,
2013-01-28 16:22:00,27.2,23.4,30.12,ENE,63,0.8,4.0,85,0.00,n/a,n/a,-99.99,Henriksen +1-Wire,2013-01-28 21:22:00,
2013-01-28 16:28:00,26.5,22.8,30.12,ENE,73,2.8,4.4,85,0.00,n/a,n/a,-99.99,Henriksen +1-Wire,2013-01-28 21:28:00,
2013-01-28 16:34:00,26.2,22.8,30.11,East,80,1.9,4.4,86,0.00,n/a,n/a,-99.99,Henriksen +1-Wire,2013-01-28 21:34:00,
2013-01-28 16:40:00,25.6,22.3,30.10,ENE,77,2.4,4.1,87,0.00,n/a,n/a,-99.99,Henriksen +1-Wire,2013-01-28 21:40:00,
2013-01-28 16:46:00,25.2,22.0,30.10,ENE,71,2.0,5.2,87,0.00,n/a,n/a,-99.99,Henriksen +1-Wire,2013-01-28 21:46:00,
2013-01-28 16:52:00,25.1,22.0,30.10,ENE,66,1.9,5.0,87,0.00,n/a,n/a,-99.99,Henriksen +1-Wire,2013-01-28 21:52:00,
2013-01-28 16:58:00,24.9,21.9,30.09,NE,45,2.3,4.6,88,0.00,n/a,n/a,-99.99,Henriksen +1-Wire,2013-01-28 21:58:00,
2013-01-28 17:04:00,24.9,21.9,30.09,ENE,76,3.1,4.9,88,0.00,n/a,n/a,-99.99,Henriksen +1-Wire,2013-01-28 22:04:00,
2013-01-28 17:10:00,24.9,22.0,30.09,ENE,70,1.8,4.9,88,0.00,n/a,n/a,-99.99,Henriksen +1-Wire,2013-01-28 22:10:00,
2013-01-28 17:16:00,25.0,22.0,30.09,NE,51,0.7,3.9,88,0.00,n/a,n/a,-99.99,Henriksen +1-Wire,2013-01-28 22:16:00,
2013-01-28 17:22:00,24.9,22.1,30.08,East,84,0.9,2.3,88,0.00,n/a,n/a,-99.99,Henriksen +1-Wire,2013-01-28 22:22:00,
2013-01-28 17:28:00,25.0,22.1,30.08,ENE,67,0.8,2.2,88,0.00,n/a,n/a,-99.99,Henriksen +1-Wire,2013-01-28 22:28:00,
2013-01-28 17:34:00,25.0,22.1,30.08,ENE,70,1.5,4.5,88,0.00,n/a,n/a,-99.99,Henriksen +1-Wire,2013-01-28 22:34:00,
2013-01-28 17:40:00,25.0,22.0,30.07,ENE,66,2.0,3.8,88,0.00,n/a,n/a,-99.99,Henriksen +1-Wire,2013-01-28 22:40:00,
2013-01-28 17:46:00,25.0,22.1,30.06,ENE,68,1.2,3.8,88,0.00,n/a,n/a,-99.99,Henriksen +1-Wire,2013-01-28 22:46:00,
2013-01-28 17:52:00,25.0,22.1,30.06,ENE,63,1.0,3.5,88,0.00,n/a,n/a,-99.99,Henriksen +1-Wire,2013-01-28 22:52:00,
2013-01-28 17:58:00,24.9,22.0,30.07,NW,307,0.6,3.5,88,0.00,n/a,n/a,-99.99,Henriksen +1-Wire,2013-01-28 22:58:00,
2013-01-28 18:04:00,25.0,22.2,30.06,ENE,66,2.2,3.6,89,0.00,n/a,n/a,-99.99,Henriksen +1-Wire,2013-01-28 23:04:00,
2013-01-28 18:10:00,25.0,22.2,30.06,ENE,75,0.0,3.6,89,0.00,n/a,n/a,-99.99,Henriksen +1-Wire,2013-01-28 23:10:00,
2013-01-28 18:16:00,25.0,22.3,30.05,NNE,13,0.5,1.3,89,0.00,n/a,n/a,-99.99,Henriksen +1-Wire,2013-01-28 23:16:00,
2013-01-28 18:22:00,25.0,22.2,30.05,NNW,330,0.5,2.3,89,0.00,n/a,n/a,-99.99,Henriksen +1-Wire,2013-01-28 23:22:00,
2013-01-28 18:28:00,25.0,22.2,30.04,NNW,333,0.8,2.3,89,0.00,n/a,n/a,-99.99,Henriksen +1-Wire,2013-01-28 23:28:00,
2013-01-28 18:34:00,25.5,22.8,30.04,East,84,2.2,3.8,89,0.00,n/a,n/a,-99.99,Henriksen +1-Wire,2013-01-28 23:34:00,
2013-01-28 18:40:00,25.4,22.5,30.05,East,80,0.1,3.8,88,0.00,n/a,n/a,-99.99,Henriksen +1-Wire,2013-01-28 23:40:00,
2013-01-28 18:46:00,25.1,22.3,30.06,NW,315,0.4,3.6,89,0.00,n/a,n/a,-99.99,Henriksen +1-Wire,2013-01-28 23:46:00,
2013-01-28 18:52:00,25.1,22.4,30.06,NNW,331,0.0,1.3,89,0.00,n/a,n/a,-99.99,Henriksen +1-Wire,2013-01-28 23:52:00,
2013-01-28 18:58:00,25.8,23.1,30.04,NNW,344,0.7,1.9,89,0.00,n/a,n/a,-99.99,Henriksen +1-Wire,2013-01-28 23:58:00,
2013-01-28 19:04:00,26.9,24.2,30.03,NNE,20,1.0,1.9,89,0.00,n/a,n/a,-99.99,Henriksen +1-Wire,2013-01-29 00:04:00,
2013-01-28 19:10:00,27.0,24.3,30.04,NW,320,0.6,1.7,89,0.00,n/a,n/a,-99.99,Henriksen +1-Wire,2013-01-29 00:10:00,
2013-01-28 19:16:00,27.0,24.4,30.05,NW,320,0.9,1.9,89,0.00,n/a,n/a,-99.99,Henriksen +1-Wire,2013-01-29 00:16:00,
2013-01-28 19:22:00,26.9,24.2,30.04,NW,323,2.0,2.9,89,0.00,n/a,n/a,-99.99,Henriksen +1-Wire,2013-01-29 00:22:00,
2013-01-28 19:28:00,25.6,23.0,30.04,NW,321,1.1,2.9,89,0.00,n/a,n/a,-99.99,Henriksen +1-Wire,2013-01-29 00:28:00,
2013-01-28 19:34:00,25.2,22.7,30.06,WNW,295,1.2,3.2,89,0.00,n/a,n/a,-99.99,Henriksen +1-Wire,2013-01-29 00:34:00,
2013-01-28 19:40:00,25.1,22.6,30.05,WNW,297,1.2,2.6,90,0.00,n/a,n/a,-99.99,Henriksen +1-Wire,2013-01-29 00:40:00,
2013-01-28 19:46:00,25.2,22.8,30.05,NW,319,1.4,2.6,90,0.00,n/a,n/a,-99.99,Henriksen +1-Wire,2013-01-29 00:46:00,
2013-01-28 19:52:00,25.1,22.7,30.04,NW,320,1.9,4.5,90,0.00,n/a,n/a,-99.99,Henriksen +1-Wire,2013-01-29 00:52:00,
2013-01-28 19:58:00,25.1,22.6,30.04,NW,324,2.1,4.5,90,0.00,n/a,n/a,-99.99,Henriksen +1-Wire,2013-01-29 00:58:00,
2013-01-28 20:04:00,25.1,22.7,30.03,NNW,343,0.4,2.9,90,0.00,n/a,n/a,-99.99,Henriksen +1-Wire,2013-01-29 01:04:00,
2013-01-28 20:10:00,25.1,22.6,30.03,NNW,340,0.6,2.3,90,0.00,n/a,n/a,-99.99,Henriksen +1-Wire,2013-01-29 01:10:00,
2013-01-28 20:16:00,25.1,22.7,30.03,NW,315,0.1,2.3,90,0.00,n/a,n/a,-99.99,Henriksen +1-Wire,2013-01-29 01:16:00,
2013-01-28 20:22:00,25.6,23.2,30.03,NW,317,0.1,1.3,90,0.00,n/a,n/a,-99.99,Henriksen +1-Wire,2013-01-29 01:22:00,
2013-01-28 20:28:00,26.8,24.4,30.02,NW,312,0.8,1.7,90,0.00,n/a,n/a,-99.99,Henriksen +1-Wire,2013-01-29 01:28:00,
2013-01-28 20:34:00,27.2,24.8,30.01,NNW,329,0.5,1.7,90,0.00,n/a,n/a,-99.99,Henriksen +1-Wire,2013-01-29 01:34:00,
2013-01-28 20:40:00,27.3,25.0,30.01,NNW,328,0.6,1.7,90,0.00,n/a,n/a,-99.99,Henriksen +1-Wire,2013-01-29 01:40:00,
2013-01-28 20:46:00,27.4,25.1,30.01,ENE,74,0.1,1.7,90,0.00,n/a,n/a,-99.99,Henriksen +1-Wire,2013-01-29 01:46:00,
2013-01-28 20:52:00,27.3,25.0,30.01,NW,308,0.2,1.3,90,0.00,n/a,n/a,-99.99,Henriksen +1-Wire,2013-01-29 01:52:00,
2013-01-28 20:58:00,27.3,24.9,30.01,NW,323,0.2,1.3,90,0.00,n/a,n/a,-99.99,Henriksen +1-Wire,2013-01-29 01:58:00,
2013-01-28 21:04:00,27.3,25.0,30.00,WNW,283,0.0,0.9,90,0.00,n/a,n/a,-99.99,Henriksen +1-Wire,2013-01-29 02:04:00,
2013-01-28 21:10:00,27.0,24.7,30.00,WNW,303,1.0,1.9,90,0.00,n/a,n/a,-99.99,Henriksen +1-Wire,2013-01-29 02:10:00,
2013-01-28 21:16:00,26.9,24.6,30.00,NNW,332,1.3,1.9,90,0.00,n/a,n/a,-99.99,Henriksen +1-Wire,2013-01-29 02:16:00,
2013-01-28 21:22:00,25.8,23.5,29.99,NW,321,1.1,2.1,91,0.00,n/a,n/a,-99.99,Henriksen +1-Wire,2013-01-29 02:22:00,
2013-01-28 21:28:00,25.3,23.0,29.99,NW,318,1.0,2.1,91,0.00,n/a,n/a,-99.99,Henriksen +1-Wire,2013-01-29 02:28:00,
2013-01-28 21:34:00,25.1,22.9,29.99,NW,323,1.3,2.6,91,0.00,n/a,n/a,-99.99,Henriksen +1-Wire,2013-01-29 02:34:00,
2013-01-28 21:40:00,25.1,22.9,29.99,NW,325,1.4,2.6,91,0.00,n/a,n/a,-99.99,Henriksen +1-Wire,2013-01-29 02:40:00,
2013-01-28 21:46:00,25.1,22.9,29.99,NW,311,0.8,2.5,91,0.00,n/a,n/a,-99.99,Henriksen +1-Wire,2013-01-29 02:46:00,
2013-01-28 21:52:00,25.0,22.8,29.99,NNW,328,1.4,2.9,91,0.00,n/a,n/a,-99.99,Henriksen +1-Wire,2013-01-29 02:52:00,
2013-01-28 21:58:00,25.1,22.8,29.99,NW,320,1.1,2.8,91,0.00,n/a,n/a,-99.99,Henriksen +1-Wire,2013-01-29 02:58:00,
2013-01-28 22:04:00,25.1,22.9,29.98,NW,323,1.7,2.9,91,0.00,n/a,n/a,-99.99,Henriksen +1-Wire,2013-01-29 03:04:00,
2013-01-28 22:10:00,25.2,23.0,29.99,NW,325,0.9,2.9,91,0.00,n/a,n/a,-99.99,Henriksen +1-Wire,2013-01-29 03:10:00,
2013-01-28 22:16:00,25.6,23.3,29.98,NW,322,1.1,1.9,91,0.00,n/a,n/a,-99.99,Henriksen +1-Wire,2013-01-29 03:16:00,
2013-01-28 22:22:00,26.3,24.1,29.98,NW,304,0.9,1.9,91,0.00,n/a,n/a,-99.99,Henriksen +1-Wire,2013-01-29 03:22:00,
2013-01-28 22:28:00,26.9,24.7,29.99,NW,315,1.0,2.6,91,0.00,n/a,n/a,-99.99,Henriksen +1-Wire,2013-01-29 03:28:00,
2013-01-28 22:34:00,27.1,24.8,29.98,NW,311,1.7,2.9,91,0.00,n/a,n/a,-99.99,Henriksen +1-Wire,2013-01-29 03:34:00,
2013-01-28 22:40:00,27.1,24.9,29.98,NW,317,1.3,2.9,91,0.00,n/a,n/a,-99.99,Henriksen +1-Wire,2013-01-29 03:40:00,
2013-01-28 22:46:00,26.7,24.5,29.99,NW,311,0.5,2.8,91,0.00,n/a,n/a,-99.99,Henriksen +1-Wire,2013-01-29 03:46:00,
2013-01-28 22:52:00,25.8,23.6,29.99,NW,314,1.4,3.6,91,0.00,n/a,n/a,-99.99,Henriksen +1-Wire,2013-01-29 03:52:00,
2013-01-28 22:58:00,25.2,23.0,29.98,NW,319,1.4,3.6,91,0.00,n/a,n/a,-99.99,Henriksen +1-Wire,2013-01-29 03:58:00,
2013-01-28 23:04:00,25.1,22.9,29.99,NW,319,1.9,3.2,91,0.00,n/a,n/a,-99.99,Henriksen +1-Wire,2013-01-29 04:04:00,
2013-01-28 23:10:00,25.1,22.9,29.98,NW,315,1.3,3.2,91,0.00,n/a,n/a,-99.99,Henriksen +1-Wire,2013-01-29 04:10:00,
2013-01-28 23:16:00,25.0,22.8,29.99,NW,315,1.6,2.8,91,0.00,n/a,n/a,-99.99,Henriksen +1-Wire,2013-01-29 04:16:00,
2013-01-28 23:22:00,25.0,22.7,29.98,NW,322,1.3,3.3,91,0.00,n/a,n/a,-99.99,Henriksen +1-Wire,2013-01-29 04:22:00,
2013-01-28 23:28:00,24.9,22.7,29.98,NW,324,1.4,3.3,91,0.00,n/a,n/a,-99.99,Henriksen +1-Wire,2013-01-29 04:28:00,
2013-01-28 23:34:00,24.9,22.6,29.98,NW,325,2.2,3.6,91,0.00,n/a,n/a,-99.99,Henriksen +1-Wire,2013-01-29 04:34:00,
2013-01-28 23:40:00,24.9,22.6,29.98,NNW,328,1.3,3.7,91,0.00,n/a,n/a,-99.99,Henriksen +1-Wire,2013-01-29 04:40:00,
2013-01-28 23:46:00,24.9,22.7,29.97,NW,307,0.3,2.6,91,0.00,n/a,n/a,-99.99,Henriksen +1-Wire,2013-01-29 04:46:00,
2013-01-28 23:52:00,24.9,22.7,29.97,NW,318,0.0,1.9,91,0.00,n/a,n/a,-99.99,Henriksen +1-Wire,2013-01-29 04:52:00,
2013-01-28 23:58:00,24.9,22.7,29.97,NW,322,0.5,1.6,91,0.00,n/a,n/a,-99.99,Henriksen +1-Wire,2013-01-29 04:58:00,